| time (UTC) | temp C | wind direction | speed KPH | gust KPH | rain 1hr cm | rain 24hr cm | rain mn cm | humidity % | barometer mb |
| 20260502140105 | 12 | 0 | 0.0 | 0.0 | 0.00 | 0.05 | 0.05 | 83 | 1009.9 |
| 20260502130104 | 11 | 0 | 0.0 | 4.8 | 0.00 | 0.05 | 0.05 | 87 | 1009.9 |
| 20260502123100 | 10 | 0 | 0.0 | 0.0 | 0.00 | 0.05 | 0.05 | 90 | 1009.9 |
| 20260502121558 | 10 | 0 | 0.0 | 1.6 | 0.00 | 0.05 | 0.05 | 91 | 1009.8 |
| 20260502120105 | 10 | 124 | 0.0 | 3.2 | 0.00 | 0.05 | 0.05 | 91 | 1009.9 |
| 20260502114601 | 10 | 0 | 0.0 | 1.6 | 0.03 | 0.05 | 0.05 | 91 | 1010.0 |
| 20260502113101 | 10 | 0 | 0.0 | 0.0 | 0.05 | 0.05 | 0.05 | 91 | 1009.5 |
| 20260502111557 | 10 | 0 | 0.0 | 1.6 | 0.05 | 0.05 | 0.05 | 90 | 1009.4 |
| 20260502104558 | 10 | 0 | 0.0 | 4.8 | 0.03 | 0.03 | 0.03 | 87 | 1009.5 |
| 20260502103102 | 10 | 0 | 0.0 | 3.2 | 0.00 | 0.00 | 0.00 | 86 | 1009.5 |
| 20260502101557 | 10 | 0 | 0.0 | 6.4 | 0.00 | 0.00 | 0.00 | 86 | 1009.6 |
| 20260502090104 | 10 | 54 | 0.0 | 6.4 | 0.00 | 0.00 | 0.00 | 84 | 1009.5 |
| 20260502080109 | 10 | 0 | 0.0 | 3.2 | 0.00 | 0.00 | 0.00 | 89 | 1009.5 |
| 20260502070101 | 10 | 137 | 0.0 | 9.7 | 0.00 | 0.00 | 0.00 | 88 | 1009.7 |
| 20260502064604 | 10 | 68 | 3.2 | 14.5 | 0.00 | 0.00 | 0.00 | 88 | 1009.8 |
| 20260502063059 | 10 | 320 | 3.2 | 11.3 | 0.00 | 0.00 | 0.00 | 87 | 1009.8 |
| 20260502061600 | 10 | 159 | 0.0 | 9.7 | 0.00 | 0.00 | 0.00 | 87 | 1010.1 |
| 20260502060058 | 10 | 0 | 0.0 | 8.0 | 0.00 | 0.00 | 0.00 | 86 | 1010.2 |
| 20260502054600 | 10 | 328 | 1.6 | 9.7 | 0.00 | 0.00 | 0.00 | 85 | 1010.2 |
| 20260502053102 | 10 | 53 | 3.2 | 9.7 | 0.00 | 0.00 | 0.00 | 83 | 1009.8 |
| 20260502051603 | 10 | 146 | 1.6 | 9.7 | 0.00 | 0.00 | 0.00 | 82 | 1009.8 |
| 20260502050058 | 10 | 209 | 0.0 | 6.4 | 0.00 | 0.00 | 0.00 | 81 | 1010.1 |
| 20260502044600 | 10 | 0 | 0.0 | 4.8 | 0.00 | 0.00 | 0.00 | 81 | 1010.0 |
| 20260502043059 | 10 | 0 | 1.6 | 9.7 | 0.00 | 0.00 | 0.00 | 81 | 1010.1 |
| 20260502041559 | 10 | 307 | 3.2 | 12.9 | 0.00 | 0.00 | 0.00 | 80 | 1010.2 |
| 20260502040107 | 10 | 157 | 1.6 | 8.0 | 0.00 | 0.00 | 0.00 | 80 | 1010.2 |
| 20260502034557 | 10 | 278 | 1.6 | 9.7 | 0.00 | 0.00 | 0.00 | 79 | 1010.0 |
| 20260502033100 | 10 | 333 | 1.6 | 9.7 | 0.00 | 0.00 | 0.00 | 80 | 1010.1 |
| 20260502031634 | 10 | 160 | 1.6 | 9.7 | 0.00 | 0.00 | 0.00 | 80 | 1010.3 |
| 20260502030100 | 10 | 205 | 1.6 | 9.7 | 0.00 | 0.00 | 0.00 | 80 | 1010.4 |
| 20260502024557 | 10 | 0 | 0.0 | 12.9 | 0.00 | 0.00 | 0.00 | 81 | 1010.7 |
| 20260502023059 | 10 | 357 | 3.2 | 11.3 | 0.00 | 0.00 | 0.00 | 80 | 1010.6 |
| 20260502021602 | 10 | 276 | 1.6 | 11.3 | 0.00 | 0.00 | 0.00 | 80 | 1010.7 |
| 20260502020112 | 10 | 52 | 4.8 | 12.9 | 0.00 | 0.00 | 0.00 | 80 | 1010.6 |
| 20260502014559 | 10 | 57 | 4.8 | 16.1 | 0.00 | 0.00 | 0.00 | 80 | 1010.6 |
| 20260502013106 | 10 | 323 | 3.2 | 17.7 | 0.00 | 0.00 | 0.00 | 79 | 1010.4 |
| 20260502011610 | 10 | 332 | 3.2 | 12.9 | 0.00 | 0.00 | 0.00 | 77 | 1010.3 |
| 20260502010059 | 10 | 89 | 4.8 | 16.1 | 0.00 | 0.00 | 0.00 | 75 | 1010.1 |
| 20260502004607 | 10 | 340 | 0.0 | 8.0 | 0.00 | 0.00 | 0.00 | 75 | 1010.1 |
| 20260502003134 | 10 | 75 | 3.2 | 9.7 | 0.00 | 0.00 | 0.00 | 78 | 1010.1 |
| 20260502001633 | 10 | 340 | 4.8 | 11.3 | 0.00 | 0.00 | 0.00 | 78 | 1009.9 |
| 20260502000059 | 10 | 264 | 3.2 | 14.5 | 0.00 | 0.00 | 0.00 | 78 | 1009.8 |
| 20260501234558 | 10 | 65 | 4.8 | 16.1 | 0.00 | 0.00 | 0.00 | 77 | 1009.8 |
| 20260501233058 | 11 | 16 | 3.2 | 12.9 | 0.00 | 0.00 | 0.00 | 77 | 1009.7 |
| 20260501231558 | 11 | 326 | 6.4 | 16.1 | 0.00 | 0.00 | 0.00 | 75 | 1009.5 |
| 20260501230059 | 11 | 214 | 4.8 | 17.7 | 0.00 | 0.00 | 0.00 | 73 | 1009.4 |
| 20260501224603 | 12 | 308 | 6.4 | 16.1 | 0.00 | 0.00 | 0.00 | 72 | 1009.4 |
| 20260501223058 | 12 | 234 | 4.8 | 17.7 | 0.00 | 0.00 | 0.00 | 71 | 1009.5 |
| 20260501221558 | 12 | 334 | 4.8 | 16.1 | 0.00 | 0.00 | 0.00 | 68 | 1009.6 |
| 20260501220058 | 12 | 289 | 6.4 | 25.7 | 0.00 | 0.00 | 0.00 | 67 | 1009.5 |
| 20260501214559 | 13 | 41 | 4.8 | 19.3 | 0.00 | 0.00 | 0.00 | 65 | 1009.6 |
| 20260501213106 | 13 | 193 | 4.8 | 19.3 | 0.00 | 0.00 | 0.00 | 62 | 1009.4 |
| 20260501211609 | 13 | 295 | 8.0 | 20.9 | 0.00 | 0.00 | 0.00 | 61 | 1009.4 |
| 20260501204601 | 14 | 349 | 6.4 | 19.3 | 0.00 | 0.00 | 0.00 | 56 | 1009.3 |
| 20260501203101 | 15 | 140 | 6.4 | 19.3 | 0.00 | 0.00 | 0.00 | 52 | 1009.1 |
| 20260501201602 | 16 | 322 | 3.2 | 14.5 | 0.00 | 0.00 | 0.00 | 47 | 1009.0 |
| 20260501200059 | 16 | 56 | 8.0 | 17.7 | 0.00 | 0.00 | 0.00 | 49 | 1008.8 |
| 20260501194558 | 16 | 271 | 9.7 | 17.7 | 0.00 | 0.00 | 0.00 | 50 | 1008.7 |
| 20260501193100 | 17 | 337 | 4.8 | 14.5 | 0.00 | 0.00 | 0.00 | 44 | 1008.8 |
| 20260501191558 | 17 | 131 | 3.2 | 19.3 | 0.00 | 0.00 | 0.00 | 42 | 1009.1 |
| 20260501190110 | 17 | 158 | 3.2 | 16.1 | 0.00 | 0.00 | 0.00 | 43 | 1009.2 |
| 20260501184557 | 17 | 115 | 3.2 | 16.1 | 0.00 | 0.00 | 0.00 | 44 | 1009.5 |
| 20260501183058 | 17 | 309 | 3.2 | 17.7 | 0.00 | 0.00 | 0.00 | 44 | 1009.5 |
| 20260501181559 | 17 | 103 | 3.2 | 12.9 | 0.00 | 0.00 | 0.00 | 46 | 1009.6 |
| 20260501180100 | 16 | 139 | 1.6 | 9.7 | 0.00 | 0.00 | 0.00 | 42 | 1009.5 |
| 20260501174559 | 16 | 60 | 4.8 | 17.7 | 0.00 | 0.00 | 0.00 | 36 | 1009.7 |
| 20260501173106 | 16 | 124 | 4.8 | 11.3 | 0.00 | 0.00 | 0.00 | 39 | 1009.7 |
| 20260501171559 | 15 | 143 | 3.2 | 12.9 | 0.00 | 0.00 | 0.00 | 39 | 1009.9 |
| 20260501170100 | 15 | 200 | 4.8 | 17.7 | 0.00 | 0.00 | 0.00 | 42 | 1009.9 |
| 20260501164606 | 15 | 146 | 3.2 | 11.3 | 0.00 | 0.00 | 0.00 | 43 | 1010.1 |
| 20260501163101 | 15 | 143 | 4.8 | 16.1 | 0.00 | 0.00 | 0.00 | 43 | 1010.2 |
| 20260501161608 | 15 | 156 | 4.8 | 19.3 | 0.00 | 0.00 | 0.00 | 42 | 1010.4 |
| 20260501154605 | 14 | 141 | 6.4 | 19.3 | 0.00 | 0.00 | 0.00 | 42 | 1010.8 |
| 20260501153107 | 13 | 150 | 4.8 | 16.1 | 0.00 | 0.00 | 0.00 | 45 | 1010.9 |
| 20260501151600 | 13 | 78 | 8.0 | 19.3 | 0.00 | 0.00 | 0.00 | 45 | 1011.0 |
| 20260501150057 | 13 | 132 | 8.0 | 16.1 | 0.00 | 0.00 | 0.00 | 49 | 1010.8 |
| 20260501144604 | 13 | 0 | 3.2 | 17.7 | 0.00 | 0.00 | 0.00 | 50 | 1010.5 |
| 20260501143101 | 12 | 121 | 8.0 | 19.3 | 0.00 | 0.00 | 0.00 | 49 | 1010.6 |